Location: USNO
(38.9242°N, 77.0663°W)
Time: 08:23:18
(UTC-04:00)

N. Korean satellite - Pass Details

Date: 16 October 2017
Orbit: 459 x 517 km, 97.2° (Epoch: 21 October)

Event Time Altitude Azimuth Distance (km) Brightness Sun altitude
Rises 20:09:50 0° 206° (SSW) 2,540 10.5 -20.6°
Reaches altitude 10° 20:12:38 10° 231° (SW) 1,653 9.9 -21.1°
Maximum altitude 20:14:42 15° 267° (W) 1,381 9.9 -21.5°
Drops below altitude 10° 20:16:45 10° 302° (WNW) 1,643 10.1 -21.9°
Sets 20:19:32 0° 327° (NNW) 2,515 10.7 -22.5°
